Today

Time Wind Dr Wind Spd
mph
Wind Gust
mph
Hum In
%
Humid
%
TempI
F
Temp
F
Raw Bar
in
Tot Rain
in
UV Solar
W/sqm
DailyRain
in
HourRain
in
24HrRain
in
RainRate
in
10/21/18 12:00:36 AM 347 0.0 0.0 20 42 87.1 63.8 29.921 3.53 0.0 0 0.00 0.00 0.00 0.00
10/21/18 12:01:26 AM 347 0.0 0.0 20 42 87.1 63.8 29.922 3.53 0.0 0 0.00 0.00 0.00 0.00
10/21/18 12:02:18 AM 347 0.0 0.0 20 42 87.1 63.8 29.922 3.53 0.0 0 0.00 0.00 0.00 0.00
10/21/18 12:03:28 AM 347 0.0 0.0 20 42 87.1 63.9 29.922 3.53 0.0 0 0.00 0.00 0.00 0.00
10/21/18 12:04:20 AM 347 0.0 0.0 20 42 87.1 64.0 29.922 3.53 0.0 0 0.00 0.00 0.00 0.00
10/21/18 12:05:33 AM 347 1.0 2.0 20 42 87.1 64.1 29.922 3.53 0.0 0 0.00 0.00 0.00 0.00
10/21/18 12:06:25 AM 347 0.0 2.0 20 43 87.1 64.1 29.922 3.53 0.0 0 0.00 0.00 0.00 0.00
10/21/18 12:07:15 AM 347 0.0 2.0 20 43 87.1 64.1 29.921 3.53 0.0 0 0.00 0.00 0.00 0.00
10/21/18 12:08:27 AM 347 0.0 2.0 20 43 87.1 64.0 29.922 3.53 0.0 0 0.00 0.00 0.00 0.00
10/21/18 12:09:20 AM 347 0.0 2.0 20 44 87.1 63.9 29.922 3.53 0.0 0 0.00 0.00 0.00 0.00
10/21/18 12:10:32 AM 347 0.0 2.0 20 44 87.1 63.8 29.921 3.53 0.0 0 0.00 0.00 0.00 0.00
10/21/18 12:11:25 AM 347 0.0 2.0 20 43 87.1 63.8 29.921 3.53 0.0 0 0.00 0.00 0.00 0.00
10/21/18 12:12:15 AM 347 1.0 2.0 20 43 87.1 63.6 29.922 3.53 0.0 0 0.00 0.00 0.00 0.00
10/21/18 12:13:26 AM 347 2.0 2.0 20 44 87.1 63.4 29.918 3.53 0.0 0 0.00 0.00 0.00 0.00
10/21/18 12:14:20 AM 347 1.0 2.0 20 44 87.1 63.2 29.921 3.53 0.0 0 0.00 0.00 0.00 0.00
10/21/18 12:15:31 AM 347 2.0 2.0 20 44 87.1 63.0 29.921 3.53 0.0 0 0.00 0.00 0.00 0.00
10/21/18 12:16:24 AM 347 1.0 2.0 20 44 87.1 62.9 29.921 3.53 0.0 0 0.00 0.00 0.00 0.00
10/21/18 12:17:17 AM 347 1.0 2.0 20 44 87.1 62.7 29.921 3.53 0.0 0 0.00 0.00 0.00 0.00
10/21/18 12:18:29 AM 347 2.0 2.0 20 44 87.1 62.7 29.920 3.53 0.0 0 0.00 0.00 0.00 0.00
10/21/18 12:19:19 AM 347 2.0 2.0 20 45 87.1 62.8 29.920 3.53 0.0 0 0.00 0.00 0.00 0.00
10/21/18 12:20:30 AM 347 2.0 3.0 20 45 87.1 62.9 29.921 3.53 0.0 0 0.00 0.00 0.00 0.00
10/21/18 12:21:23 AM 347 2.0 3.0 20 44 87.1 63.1 29.921 3.53 0.0 0 0.00 0.00 0.00 0.00
10/21/18 12:22:35 AM 347 1.0 3.0 20 44 87.1 63.3 29.919 3.53 0.0 0 0.00 0.00 0.00 0.00
10/21/18 12:23:28 AM 347 1.0 3.0 20 44 87.1 63.7 29.918 3.53 0.0 0 0.00 0.00 0.00 0.00
10/21/18 12:24:15 AM 347 0.0 3.0 20 44 87.1 63.9 29.918 3.53 0.0 0 0.00 0.00 0.00 0.00
10/21/18 12:25:30 AM 347 0.0 3.0 20 43 87.1 64.3 29.919 3.53 0.0 0 0.00 0.00 0.00 0.00
10/21/18 12:26:20 AM 347 0.0 3.0 20 42 87.1 64.5 29.919 3.53 0.0 0 0.00 0.00 0.00 0.00
10/21/18 12:27:32 AM 347 0.0 3.0 20 42 87.1 64.8 29.920 3.53 0.0 0 0.00 0.00 0.00 0.00
10/21/18 12:28:25 AM 347 0.0 3.0 20 41 87.1 65.1 29.920 3.53 0.0 0 0.00 0.00 0.00 0.00
10/21/18 12:29:18 AM 347 0.0 3.0 20 41 87.1 65.2 29.921 3.53 0.0 0 0.00 0.00 0.00 0.00
10/21/18 12:30:30 AM 347 0.0 3.0 20 41 87.1 65.4 29.919 3.53 0.0 0 0.00 0.00 0.00 0.00
10/21/18 12:31:20 AM 347 0.0 3.0 20 41 87.1 65.4 29.919 3.53 0.0 0 0.00 0.00 0.00 0.00
10/21/18 12:32:34 AM 347 0.0 3.0 20 42 87.1 64.9 29.918 3.53 0.0 0 0.00 0.00 0.00 0.00
10/21/18 12:33:25 AM 347 0.0 3.0 20 42 87.1 64.7 29.918 3.53 0.0 0 0.00 0.00 0.00 0.00
10/21/18 12:34:18 AM 347 0.0 3.0 20 42 87.1 64.6 29.918 3.53 0.0 0 0.00 0.00 0.00 0.00
10/21/18 12:35:26 AM 347 0.0 3.0 20 42 87.1 64.6 29.919 3.53 0.0 0 0.00 0.00 0.00 0.00
10/21/18 12:36:17 AM 347 0.0 3.0 20 43 87.1 64.5 29.919 3.53 0.0 0 0.00 0.00 0.00 0.00
10/21/18 12:37:34 AM 347 1.0 3.0 20 43 87.1 64.2 29.920 3.53 0.0 0 0.00 0.00 0.00 0.00
10/21/18 12:38:28 AM 347 2.0 3.0 20 44 87.1 64.0 29.920 3.53 0.0 0 0.00 0.00 0.00 0.00
10/21/18 12:39:21 AM 347 3.0 3.0 20 44 87.1 63.9 29.919 3.53 0.0 0 0.00 0.00 0.00 0.00
10/21/18 12:40:29 AM 347 2.0 3.0 20 44 87.1 63.9 29.918 3.53 0.0 0 0.00 0.00 0.00 0.00
10/21/18 12:41:23 AM 347 2.0 3.0 20 44 87.1 63.9 29.918 3.53 0.0 0 0.00 0.00 0.00 0.00
10/21/18 12:42:34 AM 347 1.0 3.0 20 43 87.1 64.1 29.921 3.53 0.0 0 0.00 0.00 0.00 0.00
10/21/18 12:43:24 AM 347 0.0 3.0 20 43 87.1 64.2 29.921 3.53 0.0 0 0.00 0.00 0.00 0.00
10/21/18 12:44:18 AM 347 0.0 3.0 20 43 87.1 64.2 29.918 3.53 0.0 0 0.00 0.00 0.00 0.00
10/21/18 12:45:35 AM 347 0.0 3.0 20 43 87.1 64.2 29.917 3.53 0.0 0 0.00 0.00 0.00 0.00
10/21/18 12:46:22 AM 347 0.0 3.0 20 43 87.1 64.1 29.917 3.53 0.0 0 0.00 0.00 0.00 0.00
10/21/18 12:47:34 AM 347 0.0 3.0 20 44 87.0 63.9 29.918 3.53 0.0 0 0.00 0.00 0.00 0.00
10/21/18 12:48:24 AM 347 0.0 3.0 20 44 87.0 63.8 29.918 3.53 0.0 0 0.00 0.00 0.00 0.00
10/21/18 12:49:18 AM 347 0.0 3.0 20 44 87.1 63.7 29.915 3.53 0.0 0 0.00 0.00 0.00 0.00
10/21/18 12:50:29 AM 348 0.0 3.0 20 44 87.0 63.5 29.919 3.53 0.0 0 0.00 0.00 0.00 0.00
10/21/18 12:51:16 AM 347 0.0 3.0 20 44 87.0 63.5 29.919 3.53 0.0 0 0.00 0.00 0.00 0.00
10/21/18 12:52:31 AM 347 0.0 3.0 20 44 87.1 63.4 29.917 3.53 0.0 0 0.00 0.00 0.00 0.00
10/21/18 12:53:21 AM 347 0.0 3.0 20 44 87.1 63.4 29.917 3.53 0.0 0 0.00 0.00 0.00 0.00
10/21/18 12:54:33 AM 348 0.0 3.0 20 44 87.0 63.3 29.919 3.53 0.0 0 0.00 0.00 0.00 0.00
10/21/18 12:55:26 AM 347 0.0 3.0 20 44 87.0 63.3 29.919 3.53 0.0 0 0.00 0.00 0.00 0.00
10/21/18 12:56:19 AM 347 0.0 3.0 20 44 87.0 63.3 29.919 3.53 0.0 0 0.00 0.00 0.00 0.00
10/21/18 12:57:28 AM 347 0.0 3.0 20 44 87.1 63.4 29.917 3.53 0.0 0 0.00 0.00 0.00 0.00
10/21/18 12:58:21 AM 347 0.0 3.0 20 44 87.1 63.5 29.917 3.53 0.0 0 0.00 0.00 0.00 0.00
10/21/18 12:59:36 AM 347 0.0 3.0 20 44 87.1 63.6 29.917 3.53 0.0 0 0.00 0.00 0.00 0.00
10/21/18 1:00:29 AM 347 0.0 3.0 20 43 87.1 63.7 29.917 3.53 0.0 0 0.00 0.00 0.00 0.00
10/21/18 1:01:19 AM 347 0.0 3.0 20 43 87.1 63.7 29.917 3.53 0.0 0 0.00 0.00 0.00 0.00
10/21/18 1:02:28 AM 347 2.0 3.0 20 44 87.1 63.6 29.918 3.53 0.0 0 0.00 0.00 0.00 0.00
10/21/18 1:03:21 AM 347 3.0 3.0 20 44 87.1 63.5 29.918 3.53 0.0 0 0.00 0.00 0.00 0.00
10/21/18 1:04:33 AM 347 3.0 3.0 20 44 87.0 63.5 29.919 3.53 0.0 0 0.00 0.00 0.00 0.00
10/21/18 1:05:23 AM 347 3.0 3.0 20 44 87.0 63.5 29.919 3.53 0.0 0 0.00 0.00 0.00 0.00
10/21/18 1:06:37 AM 347 2.0 3.0 20 43 87.0 63.6 29.918 3.53 0.0 0 0.00 0.00 0.00 0.00
10/21/18 1:07:25 AM 347 3.0 3.0 20 44 87.0 63.7 29.918 3.53 0.0 0 0.00 0.00 0.00 0.00
10/21/18 1:08:15 AM 347 2.0 3.0 20 44 87.1 63.7 29.918 3.53 0.0 0 0.00 0.00 0.00 0.00
10/21/18 1:09:30 AM 347 3.0 4.0 20 44 87.1 63.6 29.918 3.53 0.0 0 0.00 0.00 0.00 0.00
10/21/18 1:10:20 AM 347 4.0 5.0 20 44 87.1 63.5 29.918 3.53 0.0 0 0.00 0.00 0.00 0.00
10/21/18 1:11:34 AM 347 4.0 5.0 20 44 87.1 63.4 29.917 3.53 0.0 0 0.00 0.00 0.00 0.00
10/21/18 1:12:25 AM 347 3.0 5.0 20 44 87.1 63.4 29.917 3.53 0.0 0 0.00 0.00 0.00 0.00
10/21/18 1:13:36 AM 347 3.0 5.0 20 43 87.1 63.5 29.917 3.53 0.0 0 0.00 0.00 0.00 0.00
10/21/18 1:14:27 AM 347 3.0 5.0 20 43 87.1 63.6 29.917 3.53 0.0 0 0.00 0.00 0.00 0.00
10/21/18 1:15:20 AM 347 3.0 5.0 20 43 87.1 63.7 29.917 3.53 0.0 0 0.00 0.00 0.00 0.00
10/21/18 1:16:31 AM 347 2.0 5.0 20 43 87.0 63.8 29.918 3.53 0.0 0 0.00 0.00 0.00 0.00
10/21/18 1:17:22 AM 347 2.0 5.0 20 43 87.0 63.8 29.918 3.53 0.0 0 0.00 0.00 0.00 0.00
10/21/18 1:18:30 AM 347 1.0 5.0 20 43 87.1 63.8 29.919 3.53 0.0 0 0.00 0.00 0.00 0.00
10/21/18 1:19:23 AM 347 1.0 5.0 20 43 87.1 63.8 29.919 3.53 0.0 0 0.00 0.00 0.00 0.00
10/21/18 1:20:35 AM 347 2.0 5.0 20 43 87.0 63.7 29.917 3.53 0.0 0 0.00 0.00 0.00 0.00
10/21/18 1:21:28 AM 347 3.0 5.0 20 43 87.1 63.6 29.918 3.53 0.0 0 0.00 0.00 0.00 0.00
10/21/18 1:22:22 AM 347 3.0 5.0 20 44 87.1 63.6 29.918 3.53 0.0 0 0.00 0.00 0.00 0.00
10/21/18 1:23:30 AM 347 4.0 5.0 20 43 87.0 63.6 29.916 3.53 0.0 0 0.00 0.00 0.00 0.00
10/21/18 1:24:20 AM 347 2.0 5.0 20 43 87.0 63.6 29.916 3.53 0.0 0 0.00 0.00 0.00 0.00
10/21/18 1:25:35 AM 347 2.0 5.0 20 43 87.1 63.7 29.918 3.53 0.0 0 0.00 0.00 0.00 0.00
10/21/18 1:26:28 AM 347 1.0 5.0 20 43 87.1 63.8 29.917 3.53 0.0 0 0.00 0.00 0.00 0.00
10/21/18 1:27:19 AM 347 1.0 5.0 20 43 87.1 63.8 29.917 3.53 0.0 0 0.00 0.00 0.00 0.00
10/21/18 1:28:33 AM 347 0.0 5.0 20 43 87.0 63.9 29.919 3.53 0.0 0 0.00 0.00 0.00 0.00
10/21/18 1:29:20 AM 347 0.0 5.0 20 44 87.0 63.6 29.919 3.53 0.0 0 0.00 0.00 0.00 0.00
10/21/18 1:30:35 AM 347 0.0 5.0 20 45 87.0 63.2 29.918 3.53 0.0 0 0.00 0.00 0.00 0.00
10/21/18 1:31:28 AM 347 0.0 5.0 20 45 87.0 63.0 29.918 3.53 0.0 0 0.00 0.00 0.00 0.00
10/21/18 1:32:19 AM 347 0.0 5.0 20 45 87.0 62.9 29.918 3.53 0.0 0 0.00 0.00 0.00 0.00
10/21/18 1:33:33 AM 347 0.0 5.0 20 45 87.0 62.7 29.918 3.53 0.0 0 0.00 0.00 0.00 0.00
10/21/18 1:34:20 AM 347 0.0 5.0 20 45 87.0 62.6 29.918 3.53 0.0 0 0.00 0.00 0.00 0.00
10/21/18 1:35:32 AM 347 0.0 5.0 20 45 87.0 62.5 29.917 3.53 0.0 0 0.00 0.00 0.00 0.00
10/21/18 1:36:25 AM 347 0.0 5.0 20 46 87.0 62.5 29.917 3.53 0.0 0 0.00 0.00 0.00 0.00
10/21/18 1:37:18 AM 347 0.0 5.0 20 46 87.0 62.3 29.917 3.53 0.0 0 0.00 0.00 0.00 0.00
10/21/18 1:38:30 AM 347 0.0 5.0 20 46 87.0 62.3 29.917 3.53 0.0 0 0.00 0.00 0.00 0.00
10/21/18 1:39:24 AM 347 0.0 5.0 20 46 87.0 62.3 29.917 3.53 0.0 0 0.00 0.00 0.00 0.00
10/21/18 1:40:32 AM 347 0.0 5.0 20 46 87.0 62.2 29.916 3.53 0.0 0 0.00 0.00 0.00 0.00
10/21/18 1:41:25 AM 347 1.0 5.0 20 46 87.0 62.2 29.916 3.53 0.0 0 0.00 0.00 0.00 0.00
10/21/18 1:42:16 AM 347 2.0 5.0 20 47 87.0 62.1 29.917 3.53 0.0 0 0.00 0.00 0.00 0.00
10/21/18 1:43:30 AM 347 2.0 5.0 20 47 87.0 62.0 29.915 3.53 0.0 0 0.00 0.00 0.00 0.00
10/21/18 1:44:23 AM 347 2.0 5.0 20 47 87.0 61.9 29.915 3.53 0.0 0 0.00 0.00 0.00 0.00
10/21/18 1:45:32 AM 347 3.0 5.0 21 47 87.1 61.9 29.916 3.53 0.0 0 0.00 0.00 0.00 0.00
10/21/18 1:46:22 AM 347 2.0 5.0 21 47 87.1 61.9 29.916 3.53 0.0 0 0.00 0.00 0.00 0.00
10/21/18 1:47:34 AM 347 2.0 5.0 21 47 87.0 62.0 29.914 3.53 0.0 0 0.00 0.00 0.00 0.00
10/21/18 1:48:27 AM 347 3.0 5.0 21 47 87.1 62.0 29.914 3.53 0.0 0 0.00 0.00 0.00 0.00
10/21/18 1:49:21 AM 347 2.0 5.0 21 46 87.1 62.0 29.914 3.53 0.0 0 0.00 0.00 0.00 0.00
10/21/18 1:50:29 AM 347 2.0 5.0 21 46 87.0 62.0 29.914 3.53 0.0 0 0.00 0.00 0.00 0.00
10/21/18 1:51:19 AM 347 1.0 5.0 21 46 87.0 62.0 29.914 3.53 0.0 0 0.00 0.00 0.00 0.00
10/21/18 1:52:34 AM 347 2.0 5.0 21 46 87.0 62.0 29.914 3.53 0.0 0 0.00 0.00 0.00 0.00
10/21/18 1:53:27 AM 347 2.0 5.0 21 46 87.0 62.0 29.914 3.53 0.0 0 0.00 0.00 0.00 0.00
10/21/18 1:54:18 AM 347 2.0 5.0 21 47 87.0 61.9 29.912 3.53 0.0 0 0.00 0.00 0.00 0.00
10/21/18 1:55:32 AM 347 2.0 5.0 21 47 87.0 61.9 29.911 3.53 0.0 0 0.00 0.00 0.00 0.00
10/21/18 1:56:20 AM 347 3.0 5.0 21 47 87.0 61.8 29.911 3.53 0.0 0 0.00 0.00 0.00 0.00
10/21/18 1:57:31 AM 347 1.0 5.0 21 47 87.0 61.8 29.911 3.53 0.0 0 0.00 0.00 0.00 0.00
10/21/18 1:58:22 AM 347 2.0 5.0 21 47 87.0 61.8 29.911 3.53 0.0 0 0.00 0.00 0.00 0.00
10/21/18 1:59:36 AM 347 1.0 5.0 21 47 87.0 61.8 29.912 3.53 0.0 0 0.00 0.00 0.00 0.00
10/21/18 2:00:29 AM 347 1.0 5.0 21 47 87.0 61.8 29.912 3.53 0.0 0 0.00 0.00 0.00 0.00
10/21/18 2:01:17 AM 347 1.0 5.0 21 47 87.0 61.8 29.908 3.53 0.0 0 0.00 0.00 0.00 0.00
10/21/18 2:02:28 AM 347 1.0 5.0 21 47 87.0 61.8 29.911 3.53 0.0 0 0.00 0.00 0.00 0.00
10/21/18 2:03:21 AM 347 1.0 5.0 21 47 87.0 61.8 29.911 3.53 0.0 0 0.00 0.00 0.00 0.00
10/21/18 2:04:33 AM 347 1.0 5.0 21 47 87.1 61.8 29.910 3.53 0.0 0 0.00 0.00 0.00 0.00
10/21/18 2:05:26 AM 347 2.0 5.0 21 48 87.2 61.6 29.910 3.53 0.0 0 0.00 0.00 0.00 0.00
10/21/18 2:06:20 AM 347 0.0 5.0 21 48 87.2 61.6 29.912 3.53 0.0 0 0.00 0.00 0.00 0.00
10/21/18 2:07:28 AM 347 0.0 5.0 21 48 87.1 61.5 29.910 3.53 0.0 0 0.00 0.00 0.00 0.00
10/21/18 2:08:22 AM 347 0.0 5.0 21 48 87.1 61.5 29.910 3.53 0.0 0 0.00 0.00 0.00 0.00
10/21/18 2:09:33 AM 347 0.0 5.0 21 48 87.1 61.3 29.912 3.53 0.0 0 0.00 0.00 0.00 0.00
10/21/18 2:10:27 AM 347 0.0 5.0 21 49 87.0 61.1 29.912 3.53 0.0 0 0.00 0.00 0.00 0.00
10/21/18 2:11:20 AM 347 0.0 5.0 21 49 87.0 60.8 29.913 3.53 0.0 0 0.00 0.00 0.00 0.00
10/21/18 2:12:29 AM 347 0.0 5.0 21 50 87.0 60.5 29.913 3.53 0.0 0 0.00 0.00 0.00 0.00
10/21/18 2:13:22 AM 347 0.0 5.0 21 49 87.0 60.4 29.913 3.53 0.0 0 0.00 0.00 0.00 0.00
10/21/18 2:14:33 AM 347 0.0 5.0 21 50 87.1 60.3 29.914 3.53 0.0 0 0.00 0.00 0.00 0.00
10/21/18 2:15:27 AM 347 0.0 5.0 21 50 87.1 60.3 29.914 3.53 0.0 0 0.00 0.00 0.00 0.00
10/21/18 2:16:17 AM 347 0.0 5.0 21 50 87.0 60.3 29.911 3.53 0.0 0 0.00 0.00 0.00 0.00
10/21/18 2:17:25 AM 347 0.0 5.0 21 50 87.0 60.3 29.912 3.53 0.0 0 0.00 0.00 0.00 0.00
10/21/18 2:18:19 AM 347 0.0 5.0 21 50 87.0 60.4 29.913 3.53 0.0 0 0.00 0.00 0.00 0.00
10/21/18 2:19:30 AM 347 0.0 5.0 21 50 87.0 60.4 29.911 3.53 0.0 0 0.00 0.00 0.00 0.00
10/21/18 2:20:24 AM 347 0.0 5.0 21 49 87.0 60.5 29.911 3.53 0.0 0 0.00 0.00 0.00 0.00
10/21/18 2:21:35 AM 347 0.0 5.0 21 49 87.0 60.5 29.910 3.53 0.0 0 0.00 0.00 0.00 0.00
10/21/18 2:22:29 AM 347 0.0 5.0 21 49 87.0 60.4 29.911 3.53 0.0 0 0.00 0.00 0.00 0.00
10/21/18 2:24:29 AM 347 0.0 5.0 21 49 87.0 60.3 29.910 3.53 0.0 0 0.00 0.00 0.00 0.00
10/21/18 2:25:22 AM 347 0.0 5.0 21 50 87.0 60.3 29.910 3.53 0.0 0 0.00 0.00 0.00 0.00
10/21/18 2:26:37 AM 347 0.0 5.0 21 49 87.0 60.2 29.910 3.53 0.0 0 0.00 0.00 0.00 0.00
10/21/18 2:27:27 AM 347 0.0 5.0 21 49 86.9 60.2 29.910 3.53 0.0 0 0.00 0.00 0.00 0.00
10/21/18 2:28:18 AM 347 0.0 5.0 21 49 86.9 60.3 29.910 3.53 0.0 0 0.00 0.00 0.00 0.00
10/21/18 2:29:29 AM 347 0.0 5.0 21 49 87.0 60.3 29.909 3.53 0.0 0 0.00 0.00 0.00 0.00
10/21/18 2:30:23 AM 347 0.0 5.0 21 49 87.0 60.3 29.909 3.53 0.0 0 0.00 0.00 0.00 0.00
10/21/18 2:31:34 AM 347 0.0 5.0 21 49 87.0 60.3 29.908 3.53 0.0 0 0.00 0.00 0.00 0.00
10/21/18 2:32:27 AM 347 0.0 5.0 21 49 86.9 60.3 29.908 3.53 0.0 0 0.00 0.00 0.00 0.00
10/21/18 2:33:18 AM 347 0.0 5.0 21 49 86.9 60.4 29.908 3.53 0.0 0 0.00 0.00 0.00 0.00
10/21/18 2:34:26 AM 347 0.0 5.0 21 49 86.9 60.4 29.908 3.53 0.0 0 0.00 0.00 0.00 0.00
10/21/18 2:35:20 AM 347 0.0 5.0 21 49 87.0 60.4 29.906 3.53 0.0 0 0.00 0.00 0.00 0.00
10/21/18 2:36:31 AM 347 0.0 5.0 21 49 86.9 60.5 29.909 3.53 0.0 0 0.00 0.00 0.00 0.00
10/21/18 2:37:22 AM 347 0.0 5.0 21 49 86.9 60.5 29.909 3.53 0.0 0 0.00 0.00 0.00 0.00
10/21/18 2:38:36 AM 347 0.0 5.0 21 49 86.9 60.5 29.908 3.53 0.0 0 0.00 0.00 0.00 0.00
10/21/18 2:39:24 AM 347 0.0 5.0 21 49 86.9 60.4 29.908 3.53 0.0 0 0.00 0.00 0.00 0.00
10/21/18 2:40:35 AM 347 0.0 5.0 21 49 86.9 60.3 29.907 3.53 0.0 0 0.00 0.00 0.00 0.00
10/21/18 2:41:29 AM 347 0.0 5.0 21 50 86.9 60.2 29.907 3.53 0.0 0 0.00 0.00 0.00 0.00
10/21/18 2:42:19 AM 347 0.0 5.0 21 50 86.9 60.2 29.907 3.53 0.0 0 0.00 0.00 0.00 0.00
10/21/18 2:43:34 AM 347 0.0 5.0 21 50 86.9 60.1 29.906 3.53 0.0 0 0.00 0.00 0.00 0.00
10/21/18 2:44:21 AM 347 0.0 5.0 21 50 86.9 60.0 29.906 3.53 0.0 0 0.00 0.00 0.00 0.00
10/21/18 2:45:36 AM 347 0.0 5.0 21 51 86.9 60.0 29.908 3.53 0.0 0 0.00 0.00 0.00 0.00
10/21/18 2:46:26 AM 347 0.0 5.0 21 51 86.9 59.9 29.908 3.53 0.0 0 0.00 0.00 0.00 0.00
10/21/18 2:47:16 AM 347 0.0 5.0 21 51 86.9 59.9 29.907 3.53 0.0 0 0.00 0.00 0.00 0.00
10/21/18 2:48:31 AM 347 0.0 5.0 21 51 86.9 59.9 29.906 3.53 0.0 0 0.00 0.00 0.00 0.00
10/21/18 2:49:21 AM 347 0.0 5.0 21 51 86.9 59.9 29.906 3.53 0.0 0 0.00 0.00 0.00 0.00
10/21/18 2:50:30 AM 347 0.0 5.0 21 51 86.9 60.0 29.908 3.53 0.0 0 0.00 0.00 0.00 0.00
10/21/18 2:51:20 AM 347 0.0 5.0 21 50 86.9 60.0 29.908 3.53 0.0 0 0.00 0.00 0.00 0.00
10/21/18 2:52:35 AM 347 0.0 5.0 21 50 86.9 60.0 29.908 3.53 0.0 0 0.00 0.00 0.00 0.00
10/21/18 2:53:28 AM 347 0.0 5.0 21 51 86.9 60.1 29.908 3.53 0.0 0 0.00 0.00 0.00 0.00
10/21/18 2:54:21 AM 347 0.0 5.0 21 51 86.9 60.1 29.908 3.53 0.0 0 0.00 0.00 0.00 0.00
10/21/18 2:55:27 AM 347 0.0 5.0 21 51 86.9 60.2 29.907 3.53 0.0 0 0.00 0.00 0.00 0.00
10/21/18 2:56:20 AM 347 0.0 5.0 21 51 86.9 60.2 29.907 3.53 0.0 0 0.00 0.00 0.00 0.00
10/21/18 2:57:32 AM 347 3.0 5.0 21 50 86.9 60.3 29.906 3.53 0.0 0 0.00 0.00 0.00 0.00
10/21/18 2:58:25 AM 347 3.0 5.0 21 50 86.9 60.4 29.906 3.53 0.0 0 0.00 0.00 0.00 0.00
10/21/18 2:59:19 AM 347 2.0 5.0 21 49 86.9 60.5 29.908 3.53 0.0 0 0.00 0.00 0.00 0.00
10/21/18 3:00:27 AM 347 3.0 5.0 21 49 86.9 60.6 29.907 3.53 0.0 0 0.00 0.00 0.00 0.00
10/21/18 3:01:20 AM 347 2.0 5.0 21 49 86.9 60.6 29.909 3.53 0.0 0 0.00 0.00 0.00 0.00
10/21/18 3:02:32 AM 347 2.0 5.0 21 49 86.8 60.7 29.908 3.53 0.0 0 0.00 0.00 0.00 0.00
10/21/18 3:03:25 AM 347 2.0 5.0 21 49 86.8 60.6 29.908 3.53 0.0 0 0.00 0.00 0.00 0.00
10/21/18 3:04:19 AM 347 2.0 5.0 21 49 86.8 60.7 29.906 3.53 0.0 0 0.00 0.00 0.00 0.00
10/21/18 3:05:30 AM 347 2.0 5.0 21 49 86.8 60.7 29.906 3.53 0.0 0 0.00 0.00 0.00 0.00
10/21/18 3:06:21 AM 347 2.0 5.0 21 49 86.8 60.8 29.906 3.53 0.0 0 0.00 0.00 0.00 0.00
10/21/18 3:07:32 AM 347 3.0 5.0 21 48 86.8 60.9 29.904 3.53 0.0 0 0.00 0.00 0.00 0.00
10/21/18 3:08:26 AM 347 3.0 5.0 21 48 86.8 61.0 29.904 3.53 0.0 0 0.00 0.00 0.00 0.00
10/21/18 3:09:16 AM 347 2.0 5.0 21 48 86.8 61.1 29.904 3.53 0.0 0 0.00 0.00 0.00 0.00
10/21/18 3:10:31 AM 347 2.0 5.0 21 47 86.8 61.3 29.903 3.53 0.0 0 0.00 0.00 0.00 0.00
10/21/18 3:11:18 AM 347 1.0 5.0 21 48 86.8 61.4 29.903 3.53 0.0 0 0.00 0.00 0.00 0.00
10/21/18 3:12:30 AM 347 1.0 5.0 21 48 86.8 61.2 29.904 3.53 0.0 0 0.00 0.00 0.00 0.00
10/21/18 3:13:24 AM 347 0.0 5.0 21 49 86.8 61.0 29.904 3.53 0.0 0 0.00 0.00 0.00 0.00
10/21/18 3:14:17 AM 347 0.0 5.0 21 49 86.8 60.7 29.906 3.53 0.0 0 0.00 0.00 0.00 0.00
10/21/18 3:15:32 AM 347 0.0 5.0 21 50 86.8 60.3 29.907 3.53 0.0 0 0.00 0.00 0.00 0.00
10/21/18 3:16:22 AM 347 0.0 5.0 21 50 86.8 60.1 29.907 3.53 0.0 0 0.00 0.00 0.00 0.00
10/21/18 3:17:31 AM 347 0.0 5.0 21 52 86.8 60.0 29.905 3.53 0.0 0 0.00 0.00 0.00 0.00
10/21/18 3:18:24 AM 347 0.0 5.0 21 52 86.8 60.1 29.905 3.53 0.0 0 0.00 0.00 0.00 0.00
10/21/18 3:19:17 AM 347 0.0 5.0 21 52 86.7 60.1 29.907 3.53 0.0 0 0.00 0.00 0.00 0.00
10/21/18 3:20:29 AM 347 0.0 5.0 21 51 86.8 60.1 29.905 3.53 0.0 0 0.00 0.00 0.00 0.00
10/21/18 3:21:23 AM 347 0.0 5.0 21 51 86.8 60.1 29.905 3.53 0.0 0 0.00 0.00 0.00 0.00
10/21/18 3:22:31 AM 347 0.0 5.0 21 50 86.7 60.1 29.904 3.53 0.0 0 0.00 0.00 0.00 0.00
10/21/18 3:23:21 AM 347 0.0 5.0 21 50 86.7 60.1 29.904 3.53 0.0 0 0.00 0.00 0.00 0.00
10/21/18 3:24:36 AM 347 0.0 5.0 21 50 86.7 60.0 29.905 3.53 0.0 0 0.00 0.00 0.00 0.00
10/21/18 3:25:27 AM 347 0.0 5.0 21 50 86.7 60.0 29.905 3.53 0.0 0 0.00 0.00 0.00 0.00
10/21/18 3:26:20 AM 347 0.0 5.0 21 50 86.7 59.9 29.905 3.53 0.0 0 0.00 0.00 0.00 0.00
10/21/18 3:27:29 AM 347 0.0 5.0 21 51 86.7 59.9 29.903 3.53 0.0 0 0.00 0.00 0.00 0.00
10/21/18 3:28:22 AM 347 0.0 5.0 21 51 86.7 59.8 29.903 3.53 0.0 0 0.00 0.00 0.00 0.00
10/21/18 3:29:34 AM 347 0.0 5.0 21 51 86.7 59.7 29.905 3.53 0.0 0 0.00 0.00 0.00 0.00
10/21/18 3:30:27 AM 347 0.0 5.0 21 51 86.7 59.6 29.905 3.53 0.0 0 0.00 0.00 0.00 0.00
10/21/18 3:31:18 AM 347 0.0 5.0 21 51 86.7 59.3 29.906 3.53 0.0 0 0.00 0.00 0.00 0.00
10/21/18 3:32:32 AM 347 0.0 5.0 21 52 86.7 59.2 29.904 3.53 0.0 0 0.00 0.00 0.00 0.00
10/21/18 3:33:20 AM 347 0.0 5.0 21 53 86.7 59.1 29.904 3.53 0.0 0 0.00 0.00 0.00 0.00
10/21/18 3:34:34 AM 347 0.0 5.0 21 53 86.6 59.1 29.904 3.53 0.0 0 0.00 0.00 0.00 0.00
10/21/18 3:35:25 AM 347 1.0 5.0 21 54 86.6 59.1 29.904 3.53 0.0 0 0.00 0.00 0.00 0.00
10/21/18 3:36:18 AM 347 0.0 5.0 21 54 86.7 59.2 29.903 3.53 0.0 0 0.00 0.00 0.00 0.00
10/21/18 3:37:30 AM 347 2.0 5.0 21 53 86.7 59.1 29.902 3.53 0.0 0 0.00 0.00 0.00 0.00
10/21/18 3:38:20 AM 347 2.0 5.0 21 53 86.7 59.0 29.902 3.53 0.0 0 0.00 0.00 0.00 0.00
10/21/18 3:39:32 AM 347 3.0 5.0 21 53 86.7 58.9 29.904 3.53 0.0 0 0.00 0.00 0.00 0.00
10/21/18 3:40:26 AM 347 3.0 5.0 21 53 86.7 58.9 29.904 3.53 0.0 0 0.00 0.00 0.00 0.00
10/21/18 3:41:16 AM 347 3.0 5.0 21 53 86.7 58.9 29.902 3.53 0.0 0 0.00 0.00 0.00 0.00
10/21/18 3:42:31 AM 347 3.0 5.0 21 53 86.7 58.9 29.905 3.53 0.0 0 0.00 0.00 0.00 0.00
10/21/18 3:43:24 AM 347 3.0 5.0 21 52 86.7 59.0 29.905 3.53 0.0 0 0.00 0.00 0.00 0.00
10/21/18 3:44:33 AM 347 3.0 5.0 21 52 86.7 59.1 29.901 3.53 0.0 0 0.00 0.00 0.00 0.00
10/21/18 3:45:24 AM 347 2.0 5.0 21 52 86.7 59.3 29.901 3.53 0.0 0 0.00 0.00 0.00 0.00
10/21/18 3:46:17 AM 347 2.0 5.0 21 52 86.7 59.4 29.904 3.53 0.0 0 0.00 0.00 0.00 0.00
10/21/18 3:47:29 AM 347 2.0 5.0 21 51 86.6 59.5 29.900 3.53 0.0 0 0.00 0.00 0.00 0.00
10/21/18 3:48:22 AM 347 2.0 5.0 21 51 86.6 59.7 29.900 3.53 0.0 0 0.00 0.00 0.00 0.00
10/21/18 3:49:31 AM 347 2.0 5.0 21 50 86.6 59.9 29.902 3.53 0.0 0 0.00 0.00 0.00 0.00
10/21/18 3:50:27 AM 347 1.0 5.0 21 50 86.6 60.1 29.902 3.53 0.0 0 0.00 0.00 0.00 0.00
10/21/18 3:51:18 AM 347 1.0 5.0 21 50 86.6 60.3 29.901 3.53 0.0 0 0.00 0.00 0.00 0.00
10/21/18 3:52:29 AM 347 0.0 5.0 21 50 86.6 60.5 29.903 3.53 0.0 0 0.00 0.00 0.00 0.00
10/21/18 3:53:23 AM 347 0.0 5.0 21 50 86.6 60.5 29.903 3.53 0.0 0 0.00 0.00 0.00 0.00
10/21/18 3:54:28 AM 347 0.0 5.0 21 50 86.6 60.4 29.903 3.53 0.0 0 0.00 0.00 0.00 0.00
10/21/18 3:55:22 AM 347 0.0 5.0 21 50 86.6 60.3 29.903 3.53 0.0 0 0.00 0.00 0.00 0.00
10/21/18 3:56:34 AM 347 0.0 5.0 21 50 86.6 60.2 29.903 3.53 0.0 0 0.00 0.00 0.00 0.00
10/21/18 3:57:24 AM 347 0.0 5.0 21 50 86.6 60.1 29.903 3.53 0.0 0 0.00 0.00 0.00 0.00
10/21/18 3:58:18 AM 347 0.0 5.0 21 50 86.6 60.0 29.903 3.53 0.0 0 0.00 0.00 0.00 0.00
10/21/18 3:59:30 AM 347 0.0 5.0 21 51 86.6 59.9 29.903 3.53 0.0 0 0.00 0.00 0.00 0.00
10/21/18 4:00:20 AM 347 0.0 5.0 21 51 86.6 59.8 29.903 3.53 0.0 0 0.00 0.00 0.00 0.00
10/21/18 4:01:29 AM 347 0.0 5.0 21 51 86.6 59.8 29.903 3.53 0.0 0 0.00 0.00 0.00 0.00
10/21/18 4:02:22 AM 347 0.0 5.0 21 51 86.6 59.8 29.903 3.53 0.0 0 0.00 0.00 0.00 0.00
10/21/18 4:03:37 AM 347 0.0 5.0 21 51 86.6 59.8 29.902 3.53 0.0 0 0.00 0.00 0.00 0.00
10/21/18 4:04:27 AM 347 0.0 5.0 21 51 86.5 59.7 29.902 3.53 0.0 0 0.00 0.00 0.00 0.00
10/21/18 4:06:30 AM 347 0.0 5.0 21 51 86.6 59.7 29.903 3.53 0.0 0 0.00 0.00 0.00 0.00
10/21/18 4:07:21 AM 347 0.0 5.0 21 51 86.6 59.7 29.903 3.53 0.0 0 0.00 0.00 0.00 0.00
10/21/18 4:08:35 AM 347 0.0 5.0 21 51 86.5 59.7 29.902 3.53 0.0 0 0.00 0.00 0.00 0.00
10/21/18 4:09:26 AM 347 2.0 5.0 21 50 86.5 59.8 29.902 3.53 0.0 0 0.00 0.00 0.00 0.00
10/21/18 4:10:20 AM 347 3.0 5.0 21 50 86.5 59.8 29.903 3.53 0.0 0 0.00 0.00 0.00 0.00
10/21/18 4:11:28 AM 347 2.0 5.0 21 50 86.5 59.8 29.902 3.53 0.0 0 0.00 0.00 0.00 0.00
10/21/18 4:12:22 AM 347 2.0 5.0 21 50 86.5 59.9 29.902 3.53 0.0 0 0.00 0.00 0.00 0.00
10/21/18 4:13:34 AM 347 2.0 5.0 21 50 86.5 59.9 29.901 3.53 0.0 0 0.00 0.00 0.00 0.00
10/21/18 4:14:27 AM 347 2.0 5.0 21 50 86.5 60.0 29.901 3.53 0.0 0 0.00 0.00 0.00 0.00
10/21/18 4:15:20 AM 347 3.0 5.0 21 49 86.5 60.1 29.901 3.53 0.0 0 0.00 0.00 0.00 0.00
10/21/18 4:16:26 AM 347 2.0 5.0 21 49 86.5 60.2 29.900 3.53 0.0 0 0.00 0.00 0.00 0.00
10/21/18 4:17:20 AM 347 2.0 5.0 21 49 86.5 60.2 29.904 3.53 0.0 0 0.00 0.00 0.00 0.00
10/21/18 4:18:32 AM 347 2.0 5.0 21 49 86.5 60.4 29.900 3.53 0.0 0 0.00 0.00 0.00 0.00
10/21/18 4:19:28 AM 347 2.0 5.0 21 49 86.5 60.5 29.900 3.53 0.0 0 0.00 0.00 0.00 0.00
10/21/18 4:20:19 AM 347 1.0 5.0 21 49 86.5 60.5 29.901 3.53 0.0 0 0.00 0.00 0.00 0.00
10/21/18 4:21:27 AM 347 1.0 5.0 21 49 86.5 60.5 29.900 3.53 0.0 0 0.00 0.00 0.00 0.00
10/21/18 4:22:18 AM 347 0.0 5.0 21 50 86.5 60.4 29.901 3.53 0.0 0 0.00 0.00 0.00 0.00
10/21/18 4:23:32 AM 347 1.0 5.0 21 50 86.5 60.2 29.901 3.53 0.0 0 0.00 0.00 0.00 0.00
10/21/18 4:24:23 AM 347 1.0 5.0 21 50 86.5 60.0 29.901 3.53 0.0 0 0.00 0.00 0.00 0.00
10/21/18 4:25:35 AM 347 1.0 5.0 21 51 86.5 59.9 29.901 3.53 0.0 0 0.00 0.00 0.00 0.00
10/21/18 4:26:28 AM 347 0.0 5.0 21 51 86.5 59.8 29.902 3.53 0.0 0 0.00 0.00 0.00 0.00
10/21/18 4:27:34 AM 347 0.0 5.0 21 51 86.5 59.6 29.903 3.53 0.0 0 0.00 0.00 0.00 0.00
10/21/18 4:28:28 AM 347 0.0 5.0 21 51 86.4 59.5 29.902 3.53 0.0 0 0.00 0.00 0.00 0.00
10/21/18 4:29:21 AM 347 0.0 5.0 21 51 86.4 59.5 29.902 3.53 0.0 0 0.00 0.00 0.00 0.00
10/21/18 4:30:36 AM 347 0.0 5.0 21 52 86.4 59.4 29.905 3.53 0.0 0 0.00 0.00 0.00 0.00
10/21/18 4:31:23 AM 347 0.0 5.0 21 51 86.4 59.4 29.905 3.53 0.0 0 0.00 0.00 0.00 0.00
10/21/18 4:32:32 AM 347 0.0 5.0 21 51 86.4 59.5 29.902 3.53 0.0 0 0.00 0.00 0.00 0.00
10/21/18 4:33:26 AM 347 0.0 5.0 21 51 86.4 59.6 29.902 3.53 0.0 0 0.00 0.00 0.00 0.00
10/21/18 4:34:19 AM 347 0.0 5.0 21 51 86.4 59.6 29.902 3.53 0.0 0 0.00 0.00 0.00 0.00
10/21/18 4:35:31 AM 347 3.0 5.0 21 51 86.4 59.6 29.901 3.53 0.0 0 0.00 0.00 0.00 0.00
10/21/18 4:36:25 AM 347 3.0 5.0 21 51 86.4 59.5 29.901 3.53 0.0 0 0.00 0.00 0.00 0.00
10/21/18 4:37:18 AM 347 3.0 5.0 21 51 86.4 59.5 29.901 3.53 0.0 0 0.00 0.00 0.00 0.00
10/21/18 4:38:27 AM 347 3.0 5.0 21 51 86.4 59.4 29.904 3.53 0.0 0 0.00 0.00 0.00 0.00
10/21/18 4:39:18 AM 347 2.0 5.0 21 51 86.4 59.4 29.903 3.53 0.0 0 0.00 0.00 0.00 0.00
10/21/18 4:40:29 AM 347 2.0 5.0 21 51 86.4 59.3 29.904 3.53 0.0 0 0.00 0.00 0.00 0.00
10/21/18 4:41:23 AM 347 1.0 5.0 21 51 86.4 59.3 29.904 3.53 0.0 0 0.00 0.00 0.00 0.00
10/21/18 4:42:17 AM 347 1.0 5.0 21 51 86.4 59.4 29.904 3.53 0.0 0 0.00 0.00 0.00 0.00
10/21/18 4:43:25 AM 347 1.0 5.0 21 51 86.4 59.4 29.904 3.53 0.0 0 0.00 0.00 0.00 0.00
10/21/18 4:44:19 AM 347 0.0 5.0 21 51 86.4 59.4 29.905 3.53 0.0 0 0.00 0.00 0.00 0.00
10/21/18 4:45:31 AM 347 0.0 5.0 21 51 86.4 59.5 29.904 3.53 0.0 0 0.00 0.00 0.00 0.00
10/21/18 4:46:21 AM 347 0.0 5.0 21 51 86.4 59.4 29.904 3.53 0.0 0 0.00 0.00 0.00 0.00
10/21/18 4:47:36 AM 347 0.0 5.0 21 51 86.4 59.4 29.905 3.53 0.0 0 0.00 0.00 0.00 0.00
10/21/18 4:48:23 AM 347 0.0 5.0 21 51 86.4 59.5 29.905 3.53 0.0 0 0.00 0.00 0.00 0.00
10/21/18 4:49:35 AM 347 0.0 5.0 21 51 86.4 59.6 29.902 3.53 0.0 0 0.00 0.00 0.00 0.00
10/21/18 4:50:29 AM 347 0.0 5.0 21 51 86.4 59.5 29.905 3.53 0.0 0 0.00 0.00 0.00 0.00
10/21/18 4:51:22 AM 347 0.0 5.0 21 51 86.4 59.3 29.905 3.53 0.0 0 0.00 0.00 0.00 0.00
10/21/18 4:52:34 AM 347 0.0 5.0 21 51 86.4 59.2 29.905 3.53 0.0 0 0.00 0.00 0.00 0.00
10/21/18 4:53:28 AM 347 0.0 5.0 21 51 86.4 59.2 29.905 3.53 0.0 0 0.00 0.00 0.00 0.00
10/21/18 4:54:36 AM 347 0.0 5.0 21 51 86.3 59.3 29.904 3.53 0.0 0 0.00 0.00 0.00 0.00
10/21/18 4:55:27 AM 347 0.0 5.0 21 50 86.4 59.5 29.902 3.53 0.0 0 0.00 0.00 0.00 0.00
10/21/18 4:56:17 AM 347 0.0 5.0 21 50 86.4 59.7 29.902 3.53 0.0 0 0.00 0.00 0.00 0.00
10/21/18 4:57:32 AM 347 0.0 5.0 21 49 86.4 60.2 29.902 3.53 0.0 0 0.00 0.00 0.00 0.00
10/21/18 4:58:23 AM 347 2.0 5.0 21 49 86.4 60.2 29.902 3.53 0.0 0 0.00 0.00 0.00 0.00
10/21/18 4:59:32 AM 347 2.0 5.0 21 49 86.3 60.4 29.902 3.53 0.0 0 0.00 0.00 0.00 0.00
10/21/18 5:00:25 AM 347 1.0 5.0 21 49 86.3 60.5 29.902 3.53 0.0 0 0.00 0.00 0.00 0.00
10/21/18 5:01:16 AM 347 1.0 5.0 21 50 86.3 60.6 29.902 3.53 0.0 0 0.00 0.00 0.00 0.00
10/21/18 5:02:31 AM 347 0.0 5.0 21 51 86.4 60.6 29.903 3.53 0.0 0 0.00 0.00 0.00 0.00
10/21/18 5:03:21 AM 347 0.0 5.0 21 51 86.4 60.4 29.903 3.53 0.0 0 0.00 0.00 0.00 0.00
10/21/18 5:04:30 AM 347 0.0 5.0 22 52 86.3 60.0 29.903 3.53 0.0 0 0.00 0.00 0.00 0.00
10/21/18 5:05:20 AM 347 0.0 5.0 22 52 86.3 59.9 29.903 3.53 0.0 0 0.00 0.00 0.00 0.00
10/21/18 5:06:35 AM 347 0.0 5.0 22 53 86.3 59.5 29.902 3.53 0.0 0 0.00 0.00 0.00 0.00
10/21/18 5:07:26 AM 347 0.0 5.0 22 54 86.3 59.3 29.902 3.53 0.0 0 0.00 0.00 0.00 0.00
10/21/18 5:08:19 AM 347 0.0 5.0 22 54 86.3 59.1 29.900 3.53 0.0 0 0.00 0.00 0.00 0.00
10/21/18 5:09:34 AM 347 0.0 5.0 22 54 86.3 58.8 29.902 3.53 0.0 0 0.00 0.00 0.00 0.00
10/21/18 5:10:21 AM 347 2.0 5.0 22 54 86.3 58.7 29.902 3.53 0.0 0 0.00 0.00 0.00 0.00
10/21/18 5:11:36 AM 347 3.0 5.0 22 54 86.3 58.5 29.902 3.53 0.0 0 0.00 0.00 0.00 0.00
10/21/18 5:12:30 AM 347 2.0 5.0 22 54 86.3 58.5 29.901 3.53 0.0 0 0.00 0.00 0.00 0.00
10/21/18 5:13:20 AM 347 3.0 5.0 22 54 86.3 58.6 29.901 3.53 0.0 0 0.00 0.00 0.00 0.00
10/21/18 5:14:35 AM 347 3.0 5.0 22 53 86.3 58.7 29.904 3.53 0.0 0 0.00 0.00 0.00 0.00
10/21/18 5:15:23 AM 347 3.0 5.0 22 53 86.3 58.8 29.904 3.53 0.0 0 0.00 0.00 0.00 0.00
10/21/18 5:16:34 AM 347 3.0 5.0 22 52 86.3 59.0 29.903 3.53 0.0 0 0.00 0.00 0.00 0.00
10/21/18 5:17:28 AM 347 3.0 5.0 22 52 86.3 59.1 29.905 3.53 0.0 0 0.00 0.00 0.00 0.00
10/21/18 5:18:19 AM 347 2.0 5.0 22 51 86.3 59.3 29.905 3.53 0.0 0 0.00 0.00 0.00 0.00
10/21/18 5:19:34 AM 347 1.0 5.0 22 51 86.3 59.3 29.906 3.53 0.0 0 0.00 0.00 0.00 0.00
10/21/18 5:20:28 AM 347 2.0 5.0 22 51 86.3 59.3 29.906 3.53 0.0 0 0.00 0.00 0.00 0.00
10/21/18 5:21:15 AM 347 1.0 5.0 22 52 86.3 59.4 29.905 3.53 0.0 0 0.00 0.00 0.00 0.00
10/21/18 5:22:30 AM 347 1.0 5.0 22 51 86.3 59.5 29.904 3.53 0.0 0 0.00 0.00 0.00 0.00
10/21/18 5:23:21 AM 347 1.0 5.0 22 51 86.3 59.5 29.904 3.53 0.0 0 0.00 0.00 0.00 0.00
10/21/18 5:24:36 AM 347 0.0 5.0 22 51 86.3 59.7 29.907 3.53 0.0 0 0.00 0.00 0.00 0.00
10/21/18 5:25:29 AM 347 2.0 5.0 22 51 86.2 59.7 29.907 3.53 0.0 0 0.00 0.00 0.00 0.00
10/21/18 5:26:17 AM 347 2.0 5.0 22 51 86.2 59.6 29.907 3.53 0.0 0 0.00 0.00 0.00 0.00
10/21/18 5:27:29 AM 347 2.0 5.0 22 52 86.2 59.5 29.906 3.53 0.0 0 0.00 0.00 0.00 0.00
10/21/18 5:28:22 AM 347 2.0 5.0 22 52 86.2 59.3 29.906 3.53 0.0 0 0.00 0.00 0.00 0.00
10/21/18 5:29:34 AM 347 2.0 5.0 22 52 86.3 59.1 29.908 3.53 0.0 0 0.00 0.00 0.00 0.00
10/21/18 5:30:31 AM 347 2.0 5.0 22 52 86.3 59.1 29.906 3.53 0.0 0 0.00 0.00 0.00 0.00
10/21/18 5:31:18 AM 347 4.0 5.0 22 52 86.3 59.1 29.906 3.53 0.0 0 0.00 0.00 0.00 0.00
10/21/18 5:32:27 AM 347 2.0 5.0 22 51 86.2 59.3 29.906 3.53 0.0 0 0.00 0.00 0.00 0.00
10/21/18 5:33:20 AM 347 2.0 5.0 22 51 86.2 59.4 29.906 3.53 0.0 0 0.00 0.00 0.00 0.00
10/21/18 5:34:32 AM 347 2.0 5.0 22 51 86.2 59.6 29.905 3.53 0.0 0 0.00 0.00 0.00 0.00
10/21/18 5:35:26 AM 347 2.0 5.0 22 50 86.2 59.8 29.905 3.53 0.0 0 0.00 0.00 0.00 0.00
10/21/18 5:36:20 AM 347 1.0 5.0 22 50 86.2 59.8 29.906 3.53 0.0 0 0.00 0.00 0.00 0.00
10/21/18 5:37:28 AM 347 1.0 5.0 22 51 86.2 59.9 29.907 3.53 0.0 0 0.00 0.00 0.00 0.00
10/21/18 5:38:19 AM 347 0.0 5.0 22 51 86.2 59.9 29.907 3.53 0.0 0 0.00 0.00 0.00 0.00
10/21/18 5:39:34 AM 347 2.0 5.0 22 51 86.2 59.8 29.907 3.53 0.0 0 0.00 0.00 0.00 0.00
10/21/18 5:40:28 AM 347 0.0 5.0 22 50 86.2 59.8 29.907 3.53 0.0 0 0.00 0.00 0.00 0.00
10/21/18 5:41:18 AM 347 1.0 5.0 22 50 86.2 59.9 29.906 3.53 0.0 0 0.00 0.00 0.00 0.00
10/21/18 5:42:27 AM 347 0.0 5.0 22 50 86.2 60.0 29.906 3.53 0.0 0 0.00 0.00 0.00 0.00
10/21/18 5:43:20 AM 347 0.0 5.0 22 50 86.2 60.0 29.907 3.53 0.0 0 0.00 0.00 0.00 0.00
10/21/18 5:44:32 AM 347 0.0 5.0 22 50 86.1 60.0 29.907 3.53 0.0 0 0.00 0.00 0.00 0.00
10/21/18 5:45:26 AM 347 0.0 5.0 22 50 86.1 60.0 29.907 3.53 0.0 0 0.00 0.00 0.00 0.00
10/21/18 5:46:20 AM 347 0.0 5.0 22 50 86.2 60.0 29.908 3.53 0.0 0 0.00 0.00 0.00 0.00
10/21/18 5:47:32 AM 347 0.0 5.0 22 50 86.2 59.9 29.907 3.53 0.0 0 0.00 0.00 0.00 0.00
10/21/18 5:48:19 AM 347 0.0 5.0 22 50 86.2 59.9 29.907 3.53 0.0 0 0.00 0.00 0.00 0.00
10/21/18 5:49:34 AM 342 4.0 5.0 22 51 86.1 59.9 29.909 3.53 0.0 0 0.00 0.00 0.00 0.00
10/21/18 5:50:25 AM 257 4.0 6.0 22 53 86.1 59.8 29.909 3.53 0.0 0 0.00 0.00 0.00 0.00
10/21/18 5:51:18 AM 257 2.0 6.0 22 54 86.2 59.6 29.909 3.53 0.0 0 0.00 0.00 0.00 0.00
10/21/18 5:52:30 AM 257 1.0 6.0 22 55 86.1 59.4 29.907 3.53 0.0 0 0.00 0.00 0.00 0.00
10/21/18 5:53:21 AM 257 0.0 6.0 22 55 86.1 59.3 29.907 3.53 0.0 0 0.00 0.00 0.00 0.00
10/21/18 5:54:33 AM 257 0.0 6.0 22 55 86.2 59.1 29.909 3.53 0.0 0 0.00 0.00 0.00 0.00

University Police wind advisory reference

For campus closure information please call the campus Emergency Hotline at (909) 537-5999

© All rights reserved. Unauthorized duplication or distribution is prohibited

Never base important decisions on this or any weather information obtained from the Internet

California State University, San Bernardino
5500 University Parkway, San Bernardino, CA. 92407
Phone: (909) 537-5108, Email: Weather Webmaster
Last Updated: